Location: Newark
(42.8481°N, 0.4872°E)
Time: 18:38:07
(UTC+00:00)

Vanguard 1 - Pass Details

Date: 01 November 2020
Orbit: 650 x 3833 km, 34.2° (Epoch: 23 November)

Event Time Altitude Azimuth Distance (km) Brightness Sun altitude
Rises 17:48:24 0° 283° (WNW) 7,937 16.1 -11.2°
Reaches altitude 10° 17:54:50 10° 276° (W) 6,727 15.6 -12.4°
Maximum altitude 18:12:01 34° 222° (SW) 3,973 13.6 -15.5°
Drops below altitude 10° 18:23:23 10° 163° (SSE) 4,441 13.3 -17.6°
Sets 18:26:38 0° 154° (SSE) 5,047 13.5 -18.1°
